Location: Zapote
(9.9191°N, 84.0597°W)
Time: 13:33:31
(UTC-06:00)

ISS - Pass Details

Date: 14 March 2020
Orbit: 418 x 423 km, 51.6° (Epoch: 11 April)

Event Time Altitude Azimuth Distance (km) Brightness Sun altitude
Rises 18:34:00 0° 208° (SSW) 2,348 0.5 -12.4°
Reaches altitude 10° 18:36:07 10° 204° (SSW) 1,485 -0.7 -12.9°
Maximum altitude 18:39:23 53° 126° (SE) 514 -3.7 -13.7°
Enters shadow 18:41:13 23° 56° (NE) 941 -2.5 -14.1°
